Location: Newark
(34.1333°N, 7.9667°W)
Time: 14:48:31
(UTC+00:00)

S-56A Canister/Altair - Pass Details

Date: 05 December 2021
Orbit: 634 x 2499 km, 38.9° (Epoch: 25 January)

Event Time Altitude Azimuth Distance (km) Brightness Sun altitude
Rises 19:49:55 0° 186° (S) 6,122 12.3 -29.9°
Reaches altitude 10° 19:56:39 10° 167° (SSE) 4,940 11.6 -31.3°
Enters shadow 20:02:03 15° 144° (SE) 4,300 11.0 -32.4°
